Regional Weather Roundup
Issued by NWS Goodland, KS

Home | Current Version | Previous Version | Text Only | Print | Product List | Glossary Off
Versions: 1 2 3 4 5 6 7 8 9 10 11 12 13 14 15 16 17 18 19 20 21 22 23 24 25 26 27 28 29 30 31 32 33 34 35 36 37 38 39 40 41 42 43 44 45 46 47 48 49 50

000
ASUS43 KGLD 120008
RWRGLD

GOODLAND FORECAST AREA HOURLY WEATHER ROUNDUP
NATIONAL WEATHER SERVICE GOODLAND KS
500 PM MST THU FEB 11 2016

...OFFICIAL OBSERVATIONS...

CITY           SKY/WX    TMP DP  RH WIND       PRES   REMARKS
GOODLAND KS    CLEAR     48  31  51 N10       30.14R
HILL CITY KS   CLOUDY    44  35  70 NE7       30.11R
IMPERIAL NEB     N/A     49  33  54 NW9       30.11R
MCCOOK NEB     CLOUDY    41  33  73 CALM      30.09R
AKRON CO       CLOUDY    48  29  47 NW7       30.16R
BURLINGTON CO  CLOUDY    48  30  49 N6        30.16R
LIMON CO       CLEAR     42  30  62 N8        30.21R
$$

...UNOFFICIAL OBSERVATIONS...

CITY           SKY/WX    TMP DP  RH WIND       PRES   REMARKS
COLBY KS       CLEAR     45  36  70 NW10      30.13R
GOVE KS          N/A     57  32  39 MISG        N/A
LENORA KS        N/A     44  32  63 MISG        N/A
NORTON KS      CLEAR     39  30  70 CALM      30.10R
SHARON SPRINGS   N/A     54  32  43 N12G18      N/A
TRENTON NEB      N/A     45  32  60 MISG        N/A
KIT CARSON CO    N/A     56  30  37 MISG        N/A
YUMA CO          N/A     50  34  55 CALM        N/A
$$



USA.gov is the U.S. government's official web portal to all federal, state and local government web resources and services.